EN

Hourly Weather Lago de Coatepeque

Today, 24 July, Saturday

Time Temperature Precipitation Wind Pressure Humidity
00:00 +19°C° 0 mm 2 mps 691 mmHg 82%
01:00 +20°C° 0 mm 1 mps 690 mmHg 84%
02:00 +20°C° 0 mm 1 mps 690 mmHg 86%
03:00 +20°C° 0 mm 1 mps 690 mmHg 88%
04:00 +20°C° 0 mm 1 mps 690 mmHg 88%
05:00 +19°C° 0 mm 1 mps 690 mmHg 89%
06:00 +19°C° 0 mm 1 mps 690 mmHg 89%
07:00 +21°C° 0 mm 1 mps 691 mmHg 80%
08:00 +23°C° 0 mm 1 mps 692 mmHg 70%
09:00 +26°C° 0 mm 1 mps 692 mmHg 61%
10:00 +27°C° 0 mm 1 mps 692 mmHg 56%
11:00 +28°C° 0 mm 1 mps 692 mmHg 52%
12:00 +29°C° 0 mm 1 mps 692 mmHg 48%
13:00 +30°C° 0 mm 1 mps 691 mmHg 47%
14:00 +30°C° 0 mm 1 mps 691 mmHg 46%
15:00 +30°C° 0 mm 1 mps 690 mmHg 45%
16:00 +28°C° 0 mm 1 mps 690 mmHg 56%
17:00 +26°C° 0 mm 1 mps 690 mmHg 67%
18:00 +24°C° 0 mm 1 mps 690 mmHg 78%
19:00 +23°C° 0 mm 1 mps 690 mmHg 81%
20:00 +22°C° 0 mm 1 mps 690 mmHg 84%
21:00 +21°C° 0 mm 1 mps 690 mmHg 86%
22:00 +21°C° 0 mm 1 mps 690 mmHg 85%
23:00 +21°C° 0 mm 1 mps 690 mmHg 84%

Tomorrow, 25 July, Sunday

Time Temperature Precipitation Wind Pressure Humidity
00:00 +21°C° 0 mm 1 mps 690 mmHg 83%
01:00 +21°C° 0 mm 1 mps 690 mmHg 84%
02:00 +20°C° 0 mm 1 mps 689 mmHg 84%
03:00 +20°C° 0 mm 1 mps 689 mmHg 84%
04:00 +20°C° 0 mm 1 mps 689 mmHg 84%
05:00 +20°C° 0 mm 1 mps 689 mmHg 85%
06:00 +19°C° 0 mm 1 mps 689 mmHg 85%
07:00 +22°C° 0 mm 1 mps 690 mmHg 74%
08:00 +24°C° 0 mm 1 mps 690 mmHg 64%
09:00 +26°C° 0 mm 1 mps 691 mmHg 53%
10:00 +28°C° 0 mm 1 mps 691 mmHg 47%
11:00 +29°C° 0 mm 1 mps 690 mmHg 41%
12:00 +31°C° 0 mm 1 mps 690 mmHg 36%
13:00 +31°C° 0 mm 1 mps 690 mmHg 38%
14:00 +31°C° 0 mm 1 mps 689 mmHg 40%
15:00 +31°C° 0 mm 1 mps 689 mmHg 41%
16:00 +29°C° 0 mm 1 mps 689 mmHg 54%
17:00 +27°C° 0 mm 1 mps 689 mmHg 67%
18:00 +24°C° 0 mm 1 mps 688 mmHg 80%
19:00 +23°C° 0.1 mm 1 mps 689 mmHg 85%
20:00 +22°C° 0.1 mm 1 mps 689 mmHg 90%
21:00 +21°C° 0.1 mm 1 mps 689 mmHg 95%
22:00 +21°C° 0.1 mm 1 mps 689 mmHg 94%
23:00 +21°C° 0.1 mm 1 mps 689 mmHg 93%

Day after tomorrow, 26 July, Monday

Time Temperature Precipitation Wind Pressure Humidity
00:00 +20°C° 0.1 mm 1 mps 689 mmHg 91%
01:00 +20°C° 0.1 mm 1 mps 689 mmHg 89%
02:00 +20°C° 0.1 mm 1 mps 688 mmHg 87%
03:00 +19°C° 0.1 mm 1 mps 688 mmHg 86%
04:00 +19°C° 0 mm 1 mps 688 mmHg 85%
05:00 +19°C° 0 mm 1 mps 688 mmHg 85%
06:00 +19°C° 0 mm 1 mps 688 mmHg 85%
07:00 +21°C° 0 mm 1 mps 689 mmHg 77%
08:00 +23°C° 0 mm 1 mps 690 mmHg 69%
09:00 +26°C° 0 mm 1 mps 690 mmHg 61%
10:00 +27°C° 0 mm 1 mps 690 mmHg 57%
11:00 +28°C° 0 mm 1 mps 690 mmHg 53%
12:00 +29°C° 0 mm 1 mps 690 mmHg 49%
13:00 +29°C° 0 mm 1 mps 690 mmHg 51%
14:00 +29°C° 0 mm 1 mps 689 mmHg 52%
15:00 +29°C° 0 mm 1 mps 689 mmHg 53%
16:00 +27°C° 0.1 mm 1 mps 689 mmHg 64%
17:00 +25°C° 0.1 mm 1 mps 689 mmHg 75%
18:00 +24°C° 0.1 mm 1 mps 688 mmHg 86%
19:00 +23°C° 0.2 mm 1 mps 689 mmHg 89%
20:00 +22°C° 0.2 mm 1 mps 689 mmHg 92%
21:00 +21°C° 0.2 mm 1 mps 690 mmHg 95%
22:00 +21°C° 0.6 mm 1 mps 690 mmHg 96%
23:00 +21°C° 0.6 mm 1 mps 690 mmHg 97%

27 July, Tuesday

Time Temperature Precipitation Wind Pressure Humidity
00:00 +18°C° 0.6 mm 0 mps 690 mmHg 97%
01:00 +18°C° 0.9 mm 0 mps 690 mmHg 97%
02:00 +18°C° 0.9 mm 0 mps 689 mmHg 97%
03:00 +18°C° 0.9 mm 0 mps 689 mmHg 97%
04:00 +20°C° 0.4 mm 1 mps 689 mmHg 97%
05:00 +19°C° 0.4 mm 1 mps 689 mmHg 97%
06:00 +19°C° 0.4 mm 1 mps 689 mmHg 96%
07:00 +21°C° 0 mm 1 mps 690 mmHg 88%
08:00 +21°C° 0 mm 0 mps 691 mmHg 80%
09:00 +23°C° 0 mm 0 mps 691 mmHg 72%
10:00 +26°C° 0 mm 1 mps 691 mmHg 65%
11:00 +28°C° 0 mm 1 mps 691 mmHg 58%
12:00 +30°C° 0 mm 1 mps 691 mmHg 51%
13:00 +29°C° 0.3 mm 1 mps 690 mmHg 59%
14:00 +28°C° 0.3 mm 1 mps 689 mmHg 66%
15:00 +27°C° 0.3 mm 1 mps 689 mmHg 73%
16:00 +25°C° 2.2 mm 1 mps 689 mmHg 81%
17:00 +23°C° 2.2 mm 1 mps 689 mmHg 90%
18:00 +22°C° 2.2 mm 1 mps 689 mmHg 98%
19:00 +21°C° 1.4 mm 1 mps 689 mmHg 98%
20:00 +19°C° 1.4 mm 0 mps 690 mmHg 98%
21:00 +19°C° 1.4 mm 0 mps 690 mmHg 98%
22:00 +19°C° 1.4 mm 0 mps 690 mmHg 98%
23:00 +19°C° 1.4 mm 0 mps 690 mmHg 98%

28 July, Wednesday

Time Temperature Precipitation Wind Pressure Humidity
00:00 +19°C° 1.4 mm 0 mps 690 mmHg 98%
01:00 +19°C° 1.2 mm 0 mps 689 mmHg 98%
02:00 +20°C° 1.2 mm 1 mps 689 mmHg 98%
03:00 +20°C° 1.2 mm 1 mps 689 mmHg 98%
04:00 +20°C° 0.3 mm 1 mps 689 mmHg 98%
05:00 +20°C° 0.3 mm 1 mps 689 mmHg 98%
06:00 +20°C° 0.3 mm 1 mps 689 mmHg 97%
07:00 +22°C° 0 mm 1 mps 690 mmHg 88%
08:00 +23°C° 0 mm 1 mps 690 mmHg 79%
09:00 +25°C° 0 mm 1 mps 691 mmHg 70%
10:00 +26°C° 0.4 mm 1 mps 691 mmHg 71%
11:00 +27°C° 0.4 mm 1 mps 690 mmHg 72%
12:00 +28°C° 0.4 mm 1 mps 690 mmHg 73%
13:00 +27°C° 1 mm 1 mps 689 mmHg 75%
14:00 +27°C° 1 mm 1 mps 689 mmHg 76%
15:00 +27°C° 1 mm 1 mps 688 mmHg 78%
16:00 +25°C° 2.6 mm 1 mps 688 mmHg 84%
17:00 +24°C° 2.6 mm 1 mps 688 mmHg 91%
18:00 +20°C° 2.6 mm 0 mps 688 mmHg 97%
19:00 +20°C° 2.9 mm 0 mps 688 mmHg 98%
20:00 +20°C° 2.9 mm 0 mps 689 mmHg 98%
21:00 +19°C° 2.9 mm 0 mps 689 mmHg 98%
22:00 +19°C° 0.2 mm 0 mps 689 mmHg 98%
23:00 +19°C° 0.2 mm 0 mps 689 mmHg 98%

29 July, Thursday

Time Temperature Precipitation Wind Pressure Humidity
00:00 +19°C° 0.2 mm 0 mps 688 mmHg 98%
01:00 +19°C° 0.5 mm 0 mps 688 mmHg 98%
02:00 +19°C° 0.5 mm 0 mps 688 mmHg 98%
03:00 +19°C° 0.5 mm 0 mps 688 mmHg 98%
04:00 +19°C° 1.8 mm 0 mps 688 mmHg 98%
05:00 +21°C° 1.8 mm 1 mps 688 mmHg 99%
06:00 +21°C° 1.8 mm 1 mps 689 mmHg 99%
07:00 +21°C° 1.3 mm 1 mps 689 mmHg 98%
08:00 +22°C° 1.3 mm 1 mps 690 mmHg 96%
09:00 +22°C° 1.3 mm 1 mps 690 mmHg 95%
10:00 +23°C° 0.6 mm 1 mps 690 mmHg 92%
11:00 +24°C° 0.6 mm 1 mps 690 mmHg 89%
12:00 +25°C° 0.6 mm 1 mps 690 mmHg 86%
13:00 +26°C° 0.8 mm 1 mps 689 mmHg 83%
14:00 +26°C° 0.8 mm 1 mps 689 mmHg 80%
15:00 +27°C° 0.8 mm 1 mps 688 mmHg 77%
16:00 +25°C° 0.7 mm 1 mps 688 mmHg 83%
17:00 +22°C° 0.7 mm 0 mps 688 mmHg 89%
18:00 +21°C° 0.7 mm 0 mps 688 mmHg 94%
19:00 +20°C° 1 mm 0 mps 689 mmHg 95%
20:00 +19°C° 1 mm 0 mps 689 mmHg 96%
21:00 +19°C° 1 mm 0 mps 689 mmHg 97%
22:00 +19°C° 0.3 mm 0 mps 689 mmHg 97%
23:00 +18°C° 0.3 mm 0 mps 689 mmHg 97%
Show more